sat.trackr.live / text

‹ back to catalog

STARLINK-1728

NORAD 46582 · 2020-070BC

PAYLOAD ACTIVE UNKNOWN

§ Identity

Operator
Country
US
Launch date
2020-10-06
Launch site
AFETR
Launch vehicle
Mass (kg)
RCS (m²)

Purposes: comms

External: N2YO · Heavens-Above · Gunter

§ Orbital elements

Epoch: 2026-08-19T21:18:43.460928Z

Period
88.07 min
Inclination
53.0119°
Eccentricity
0.0009609
Mean motion
16.35137997 rev/d
Perigee alt
172.5 km
Apogee alt
185.1 km
Semi-major
6,556.9 km
B*
7.5061e-4
RAAN
32.3382°
Arg perigee
296.5662°
Mean anomaly
63.4397°
Rev number
32,594

§ Raw data

STARLINK-17281 46582U 20070BC  26231.88800302  .06000810  12279-4  75061-3 0  99992 46582  53.0119  32.3382 0009609 296.5662  63.4397 16.35137997325943

JSON: /api/v1/satellites/46582 · /tle

For live sub-satellite position, see the globe view (requires WebGL).

§ Visibility from observer

Set your observer location to see the next 7 days of passes ≥ 10°. The values pass through the URL so the page stays shareable.

No JS? Fill the form by hand. The geolocation button needs JavaScript.